[[{"header":{"parameterUnit":"m.s-1","parameterCategory":1,"la1":30.2991,"la2":30.254,"lo1":-89.0895,"lo2":-89.0444,"dy":0.0017,"dx":0.0017,"nx":28,"ny":28,"refTime":"2024-07-05T21:00:00:Z","depth":0,"parameterNumber":2,"parameterNumberName":"U-component_of_WINDS"},"data":[0,0,0,0,0,0,0,0,0,0,0,0,0,0,0,0,0,0,0,0,0,0,0,0,0,0,0,0,0,0,0,0,0,0,0,0,0,0,0,0,0,0,0,0,0,0,0,0,0,0,0,0,0,0,0,0,0,0,0.4751,0.4751,0,0.4736,0.4736,0.4736,0.4685,0.4684,0.4683,0.4682,0.4669,0.467,0.4671,0,0,0,0,0,0,0,0,0,0,0,0,0,0.4738,0.4739,0.4751,0.4751,0.4751,0.4736,0.4736,0.4736,0.4686,0.4684,0.4683,0.4682,0.4669,0.467,0.4671,0,0,0,0,0,0,0,0,0,0,0,0,0,0.4736,0.4739,0.4751,0.4724,0.4721,0.4736,0.4736,0.4736,0.4686,0.4684,0.4682,0.4681,0.4669,0.467,0.4671,0.4712,0,0,0.4674,0.4675,0,0,0,0,0,0,0,0,0.4736,0.4736,0.4728,0.4726,0.4723,0.4711,0.4727,0.4728,0.4686,0.4699,0.4682,0.468,0.4685,0.4684,0.4686,0.4712,0.4711,0.4675,0.4675,0.4676,0.4676,0,0,0,0,0,0,0,0.4736,0.4737,0.4745,0.4728,0.4725,0.4713,0.4711,0.4727,0.4702,0.4698,0.4694,0.4693,0.4683,0.4685,0.4685,0.4711,0.4675,0.4675,0.4676,0.4677,0.4772,0.4773,0,0,0,0,0,0,0.474,0.4737,0.4746,0.4745,0.4725,0.4715,0.4712,0.4717,0.4702,0.4698,0.4695,0.4691,0.4684,0.4684,0.4684,0.4733,0.4676,0.4677,0.4677,0.477,0.4772,0.4774,0,0,0,0,0,0,0.474,0.4741,0.4746,0.474,0.474,0.4717,0.4722,0.4717,0.4719,0.4699,0.4695,0.4701,0.4682,0.4683,0.4706,0.4731,0.4677,0.4678,0.4768,0.477,0.4773,0.4829,0,0,0,0,0,0,0.474,0.4741,0.4756,0.4741,0.474,0.4768,0.4724,0.4718,0.472,0.4715,0.4704,0.47,0.4681,0.4704,0.4707,0.4732,0.4679,0.4765,0.4769,0.4772,0.4825,0.4834,0.4841,0,0,0,0,0,0.4739,0.4773,0.4757,0.4759,0.4758,0.4769,0.4769,0.4746,0.4723,0.4738,0.4725,0.47,0.4728,0.4707,0.471,0.4735,0.4763,0.4768,0.4772,0.4821,0.4832,0.4841,0,0,0,0,0,0,0.4793,0.477,0.4753,0.4782,0.4778,0.476,0.4779,0.4757,0.476,0.4755,0.4727,0.4725,0.4752,0.4746,0.4723,0.4775,0.4742,0.4747,0.4779,0.4788,0.4796,0.4798,0.468,0,0,0,0,0,0.4808,0.4818,0.4798,0.4826,0.4824,0.4802,0.4806,0.4788,0.4783,0.4781,0.4771,0.4767,0.4775,0.4781,0.4787,0.4823,0.4821,0.4842,0.485,0.4857,0.4862,0.4882,0.4892,0.4788,0.4788,0.4788,0,0,0.4839,0.4828,0.4836,0.4836,0.4831,0.4843,0.4801,0.4815,0.4824,0.4784,0.4805,0.4797,0.4792,0.4822,0.4834,0.4817,0.489,0.4862,0.4868,0.4869,0.4887,0.4897,0.4906,0.4791,0.479,0.479,0,0,0.4903,0.4895,0.4918,0.4913,0.4905,0.489,0.4896,0.4882,0.4875,0.4896,0.4866,0.4877,0.4891,0.4888,0.4889,0.4952,0.493,0.4955,0.4997,0.5017,0.5025,0.5033,0.5057,0.5065,0.496,0.496,0.496,0,0.4943,0.4959,0.4932,0.4949,0.495,0.4913,0.4937,0.4934,0.4929,0.4932,0.4912,0.4929,0.4923,0.4953,0.4968,0.4969,0.4976,0.4957,0.5026,0.5033,0.5039,0.5062,0.5071,0.4963,0.4963,0.4963,0.4962,0,0.501,0.5022,0.5041,0.5037,0.504,0.506,0.5037,0.5044,0.5026,0.5014,0.5036,0.5027,0.5032,0.5037,0.502,0.5065,0.5054,0.5031,0.4997,0.5053,0.5074,0.5082,0.4968,0.4967,0.4966,0.4965,0,0,0.5108,0.5088,0.5096,0.5094,0.5083,0.5092,0.511,0.5114,0.5121,0.5119,0.5135,0.5148,0.5126,0.5127,0.5109,0.5126,0.5179,0.5101,0.51,0.5117,0.523,0.5248,0.5259,0.5164,0.5165,0.5166,0.523,0,0.5169,0.5199,0.5176,0.5211,0.5222,0.5187,0.5204,0.52,0.5188,0.5197,0.5185,0.5195,0.5165,0.5165,0.5181,0.5169,0.5201,0.5164,0.518,0.518,0.5183,0.5269,0.5289,0.535,0.5238,0.524,0.5241,0,0.5245,0.5246,0.5282,0.5269,0.5273,0.5288,0.529,0.5298,0.5293,0.5284,0.5285,0.5263,0.5281,0.5247,0.5273,0.5249,0.5254,0.5249,0.5251,0.5252,0.5215,0.5274,0.5368,0.5378,0.5253,0.5252,0.5251,0,0.5314,0.5324,0.5347,0.5347,0.5332,0.5344,0.5338,0.5331,0.5335,0.5337,0.5339,0.5344,0.5346,0.5351,0.5331,0.5307,0.536,0.5324,0.5354,0.5355,0.5368,0.5368,0.5466,0.5369,0.5369,0.5369,0.5369,0,0.5386,0.541,0.5379,0.5393,0.5419,0.5392,0.5419,0.541,0.5404,0.5417,0.5387,0.54,0.5372,0.5383,0.5367,0.5392,0.5393,0.5387,0.5383,0.5391,0.5392,0.5394,0.539,0.5371,0.5371,0.537,0.537,0,0.5469,0.5448,0.5471,0.5455,0.5452,0.5472,0.5459,0.5472,0.5459,0.5476,0.5478,0.5458,0.5469,0.5449,0.5457,0.5447,0.5482,0.5471,0.5484,0.5481,0.5513,0.5511,0.5617,0.563,0.5524,0.5525,0.5526,0,0.5517,0.5534,0.552,0.5526,0.5522,0.5532,0.5536,0.551,0.5516,0.5511,0.5526,0.5534,0.5539,0.5558,0.5545,0.5551,0.5541,0.5578,0.5542,0.5549,0.5543,0.5543,0.5545,0.5586,0.5587,0.5588,0.5589,0,0.5604,0.5593,0.5599,0.5602,0.5607,0.5609,0.5608,0.5615,0.5588,0.5596,0.5606,0.561,0.5618,0.5627,0.5631,0.5626,0.5604,0.56,0.5607,0.5616,0.5624,0.5621,0.5506,0.5598,0.5597,0.5596,0.5596,0.5595,0.5672,0.5686,0.5678,0.5686,0.5683,0.5683,0.5695,0.5683,0.5691,0.5695,0.568,0.5694,0.5689,0.5691,0.5689,0.5701,0.5685,0.5696,0.5699,0.5702,0.5708,0.5621,0.5701,0.5701,0.5701,0.5701,0.57,0,0.5759,0.5752,0.576,0.576,0.5766,0.5743,0.5741,0.5749,0.5761,0.5758,0.5764,0.5776,0.5785,0.5773,0.5779,0.5791,0.5781,0.5794,0.5794,0.5793,0.5721,0.5714,0.5802,0.5802,0.5802,0.5802,0.5802,0.5802,0.5805,0.5829,0.5817,0.5839,0.5832,0.5845,0.5846,0.5847,0.5844,0.5859,0.5866,0.5857,0.5851,0.5857,0.5864,0.5861,0.5865,0.5882,0.5875,0.5808,0.5798,0.5789,0.5782,0.5883,0.5883,0.5946,0.5947,0.5947]},{"header":{"parameterUnit":"m.s-1","parameterCategory":1,"la1":30.2991,"la2":30.254,"lo1":-89.0895,"lo2":-89.0444,"dy":0.0017,"dx":0.0017,"nx":28,"ny":28,"refTime":"2024-07-05T21:00:00:Z","depth":0,"parameterNumber":3,"parameterNumberName":"V-component_of_WINDS"},"data":[0,0,0,0,0,0,0,0,0,0,0,0,0,0,0,0,0,0,0,0,0,0,0,0,0,0,0,0,0,0,0,0,0,0,0,0,0,0,0,0,0,0,0,0,0,0,0,0,0,0,0,0,0,0,0,0,0,0,2.6745,2.6745,0,2.6731,2.6731,2.6731,2.6715,2.6715,2.6715,2.6714,2.6698,2.6697,2.6697,0,0,0,0,0,0,0,0,0,0,0,0,0,2.6753,2.6753,2.6745,2.6745,2.6744,2.6731,2.6731,2.6731,2.6715,2.6715,2.6715,2.6714,2.6698,2.6697,2.6697,0,0,0,0,0,0,0,0,0,0,0,0,0,2.6746,2.6753,2.6745,2.6735,2.6734,2.6731,2.6731,2.673,2.6715,2.6715,2.6715,2.6714,2.6698,2.6698,2.6697,2.6701,0,0,2.6696,2.6696,0,0,0,0,0,0,0,0,2.6746,2.6745,2.6737,2.6736,2.6735,2.6724,2.6728,2.6721,2.6715,2.6722,2.6714,2.6714,2.6707,2.6706,2.6704,2.6701,2.67,2.6696,2.6696,2.6696,2.6696,0,0,0,0,0,0,0,2.6747,2.6746,2.6739,2.6737,2.6735,2.673,2.6729,2.6726,2.6716,2.6722,2.6721,2.6719,2.6706,2.6704,2.6703,2.67,2.6696,2.6696,2.6695,2.6695,2.6696,2.6696,0,0,0,0,0,0,2.6749,2.6746,2.674,2.6739,2.674,2.673,2.6729,2.6728,2.6716,2.6714,2.672,2.6719,2.6705,2.6704,2.6702,2.6705,2.6696,2.6695,2.6695,2.6696,2.6696,2.6696,0,0,0,0,0,0,2.6749,2.6749,2.674,2.6742,2.6741,2.673,2.673,2.6728,2.6726,2.6715,2.6713,2.672,2.6704,2.6703,2.6701,2.6704,2.6695,2.6695,2.6695,2.6696,2.6696,2.6711,0,0,0,0,0,0,2.675,2.6749,2.6752,2.6742,2.6741,2.6741,2.673,2.6728,2.6726,2.6724,2.6714,2.6712,2.6704,2.6702,2.6701,2.6703,2.6695,2.6695,2.6696,2.6696,2.671,2.6711,2.6713,0,0,0,0,0,2.675,2.6756,2.6752,2.6751,2.6744,2.6741,2.674,2.6731,2.6726,2.6728,2.672,2.6713,2.6704,2.6702,2.6701,2.6703,2.6695,2.6695,2.6696,2.6709,2.6711,2.6713,0,0,0,0,0,0,2.6766,2.6755,2.675,2.6754,2.6749,2.6738,2.6741,2.6734,2.6729,2.6728,2.6716,2.6714,2.6713,2.6708,2.6706,2.6705,2.6698,2.6698,2.6709,2.671,2.6712,2.6713,2.6694,0,0,0,0,0,2.677,2.677,2.676,2.6764,2.6761,2.6751,2.675,2.6743,2.6737,2.6734,2.6727,2.672,2.6715,2.6712,2.6708,2.6709,2.6705,2.6709,2.6711,2.6712,2.6712,2.671,2.6711,2.6698,2.6698,2.6698,0,0,2.6779,2.6772,2.6773,2.6767,2.6762,2.676,2.675,2.6749,2.6746,2.6734,2.6732,2.6725,2.6717,2.6716,2.6715,2.6711,2.6715,2.6713,2.6714,2.6713,2.6711,2.6712,2.6713,2.6698,2.6698,2.6698,0,0,2.6792,2.6789,2.6791,2.6785,2.6778,2.6771,2.6771,2.6762,2.6757,2.6755,2.6744,2.6741,2.6734,2.6727,2.6723,2.6731,2.6723,2.673,2.6737,2.6735,2.6736,2.6737,2.6738,2.6739,2.673,2.673,2.673,0,2.6803,2.6801,2.6792,2.6791,2.6788,2.6776,2.6777,2.6772,2.6763,2.676,2.6756,2.6745,2.6739,2.6735,2.6737,2.6734,2.6732,2.6731,2.6737,2.6738,2.6738,2.6739,2.674,2.6731,2.6731,2.6731,2.6731,0,2.6814,2.6812,2.6815,2.6806,2.6803,2.6803,2.6792,2.679,2.6782,2.6775,2.6771,2.6762,2.6755,2.6753,2.6747,2.6748,2.6745,2.6739,2.6732,2.674,2.6741,2.6741,2.6732,2.6732,2.6731,2.6731,0,0,2.6839,2.6824,2.6825,2.682,2.681,2.6807,2.6805,2.6798,2.6795,2.6789,2.6785,2.6778,2.6772,2.6767,2.6759,2.6757,2.6762,2.6751,2.6751,2.6752,2.676,2.6764,2.6765,2.6756,2.6756,2.6756,2.676,0,2.685,2.6847,2.6838,2.6837,2.6834,2.6821,2.6819,2.6811,2.6804,2.6799,2.679,2.6785,2.6778,2.6774,2.6772,2.6762,2.6763,2.6762,2.6752,2.6751,2.6754,2.6765,2.677,2.6774,2.676,2.676,2.676,0,2.6863,2.6857,2.6856,2.6844,2.6842,2.684,2.6832,2.6828,2.6818,2.6812,2.6805,2.6796,2.6791,2.6785,2.6776,2.6776,2.677,2.6765,2.6765,2.6763,2.6756,2.6763,2.6775,2.6776,2.6761,2.6761,2.6761,0,2.6879,2.6871,2.6868,2.6865,2.6851,2.6849,2.6843,2.6833,2.6828,2.682,2.6817,2.6808,2.6803,2.6795,2.6783,2.678,2.6775,2.6768,2.6769,2.6769,2.6768,2.6769,2.6779,2.6766,2.6766,2.6766,2.6766,0,2.6892,2.6891,2.6875,2.6874,2.6872,2.686,2.6858,2.685,2.6841,2.6836,2.6825,2.682,2.6805,2.6798,2.6788,2.6782,2.678,2.6774,2.6771,2.6774,2.6775,2.6771,2.677,2.6766,2.6766,2.6766,2.6766,0,2.6909,2.6899,2.6895,2.6882,2.6878,2.6877,2.6865,2.6862,2.6853,2.6847,2.6845,2.6831,2.6822,2.6809,2.6796,2.6789,2.6784,2.678,2.6787,2.6786,2.6787,2.6786,2.6795,2.6794,2.6782,2.6783,2.6783,0,2.6918,2.6917,2.6903,2.69,2.6894,2.6888,2.6883,2.6871,2.6866,2.6853,2.6851,2.6841,2.6833,2.6819,2.6806,2.6795,2.6791,2.6794,2.6789,2.6792,2.6789,2.6789,2.6788,2.6795,2.6796,2.6796,2.6796,0,2.6933,2.6928,2.6922,2.6913,2.6908,2.69,2.6892,2.6889,2.6874,2.6869,2.686,2.6853,2.684,2.6829,2.6817,2.6808,2.6799,2.6798,2.6797,2.68,2.6804,2.6801,2.679,2.6798,2.6797,2.6797,2.6797,2.6797,2.6946,2.6944,2.6933,2.6926,2.6918,2.691,2.6906,2.6897,2.6889,2.6878,2.687,2.6861,2.6848,2.6831,2.6823,2.6814,2.681,2.681,2.681,2.6809,2.681,2.6806,2.6812,2.6812,2.6812,2.6812,2.6812,0,2.6959,2.6952,2.6945,2.6934,2.6928,2.692,2.691,2.6905,2.6897,2.6887,2.6879,2.6867,2.6856,2.6842,2.683,2.6826,2.6821,2.6823,2.6823,2.6821,2.6815,2.6816,2.6827,2.6827,2.6827,2.6827,2.6827,2.6827,2.6966,2.6961,2.6954,2.6944,2.6936,2.6928,2.6923,2.6914,2.6906,2.6894,2.6885,2.6876,2.6864,2.685,2.684,2.6836,2.6831,2.6834,2.6829,2.6823,2.6822,2.682,2.6821,2.6834,2.6834,2.6836,2.6836,2.6836]}]]